Regional Weather Roundup
Issued by NWS

Home | Current Version | Previous Version | Graphics & Text | Print | Product List | Glossary Off
Versions: 1 2 3 4 5 6 7 8 9 10 11 12 13 14 15 16 17 18 19 20 21 22 23 24 25 26 27 28 29 30 31 32 33 34 35 36 37 38 39 40 41 42 43 44 45 46 47 48 49 50

634
ASUS43 KTOP 271259
RWRKS

WEATHER ROUNDUP FOR KANSAS
NATIONAL WEATHER SERVICE GOODLAND KS
800 AM CDT SAT MAY 27 2017

NOTE:  "FAIR" INDICATES FEW OR NO CLOUDS BELOW 12,000 FEET WITH NO
SIGNIFICANT WEATHER AND/OR OBSTRUCTIONS TO VISIBILITY.

KSZ001>006-013>018-027>032-041>047-271400-
NORTHWEST KANSAS

CITY           SKY/WX    TMP DP  RH WIND       PRES   REMARKS
GOODLAND       CLOUDY    53  52  96 NW18      29.95R
HAYS           LGT RAIN  58  56  93 SE15      29.85F
HILL CITY      PTSUNNY   58  57  97 W8        29.89R
RUSSELL        CLOUDY    58  57  97 SE13      29.85F
$$

KSZ061>065-074>080-084>089-271400-
SOUTHWEST KANSAS

CITY           SKY/WX    TMP DP  RH WIND       PRES   REMARKS
DODGE CITY     CLOUDY    60  54  80 NE21G30   29.85R
GARDEN CITY    MOSUNNY   61  51  70 E21G32    29.84F
GREAT BEND     CLOUDY    61  56  83 N20G29    29.89R
LIBERAL        SUNNY     66  62  87 NE6       29.82R
$$

KSZ066>073-081>083-090>101-271400-
SOUTHEAST KANSAS

CITY           SKY/WX    TMP DP  RH WIND       PRES   REMARKS
CHANUTE        CLOUDY    71  67  87 N8        29.83R
COFFEYVILLE    MOSUNNY   74  74 100 SW5       29.79R
HUTCHINSON     SUNNY     63  57  81 N15G21    29.85R
MEDICINE LODGE   N/A     69  62  78 NE20      29.76F
NEWTON         SUNNY     65  56  72 NE9G18    29.84F
PARSONS        PTSUNNY   74  71  91 N3        29.82R
WICHITA INTL   MOSUNNY   69  63  81 NE15      29.82F
WICHITA JABRA  SUNNY     67  61  81 NE12      29.84F
WINFIELD       CLOUDY    70  67  90 NE7       29.83R
$$

KSZ007>012-019>026-033>040-048>060-102>105-271400-
NORTHEAST KANSAS

CITY           SKY/WX    TMP DP  RH WIND       PRES   REMARKS
CONCORDIA      LGT RAIN  59  58  96 CALM      29.90R
EMPORIA        MOSUNNY   66  61  84 N12       29.87F
LAWRENCE       TSTM      65  60  84 NW30G38   29.93R
MANHATTAN      LGT RAIN  61  59  93 W5        29.87R
OLATHE IND     MOSUNNY   69  67  93 NW8       29.91R
OLATHE EXE     PTSUNNY   70  68  93 NW9       29.91R
SALINA         PTSUNNY   63  59  87 N7        29.88S
TOPEKA BILLARD CLOUDY    61  61 100 CALM      29.91F THUNDER
TOPEKA FORBES  CLOUDY    62  60  93 N8        29.91R
$$




USA.gov is the U.S. government's official web portal to all federal, state and local government web resources and services.